EW6553 Weather Reports


Display with metric or nautical units.
time (UTC)temp
F
wind
direction
speed
MPH
gust
MPH
rain 1hr
in
rain 24hr
in
rain mn
in
humidity
%
barometer
mb
20260506101930 57 355 3.0 11.0 0.00 0.00 0.00 73 1011.3
20260506101429 57 113 3.0 6.0 0.00 0.00 0.00 73 1011.0
20260506100923 57 0 3.0 8.0 0.00 0.00 0.00 73 1011.0
20260506100417 57 320 3.0 10.0 0.00 0.00 0.00 73 1011.0
20260506095911 57 337 3.0 10.0 0.00 0.00 0.00 73 1010.9
20260506095405 58 313 3.0 9.0 0.00 0.00 0.00 73 1010.7
20260506094901 58 355 3.0 9.0 0.00 0.00 0.00 73 1010.7
20260506094401 58 326 3.0 8.0 0.00 0.00 0.00 73 1010.6
20260506093902 58 325 4.0 10.0 0.00 0.00 0.00 73 1010.7
20260506093400 58 355 3.0 10.0 0.00 0.00 0.00 74 1010.8
20260506092901 58 348 2.0 6.0 0.00 0.00 0.00 74 1010.7
20260506092401 58 347 2.0 9.0 0.00 0.00 0.00 74 1010.5
20260506091901 58 344 2.0 9.0 0.00 0.00 0.00 74 1010.6
20260506091402 58 70 2.0 8.0 0.00 0.00 0.00 74 1010.5
20260506090900 58 335 3.0 8.0 0.00 0.00 0.00 74 1010.5
20260506090402 59 355 2.0 6.0 0.00 0.00 0.00 74 1010.5
20260506085901 59 311 2.0 5.0 0.00 0.00 0.00 74 1010.5
20260506085401 59 355 2.0 8.0 0.00 0.00 0.00 74 1010.4
20260506084901 59 351 3.0 8.0 0.00 0.00 0.00 74 1010.4
20260506084401 59 59 2.0 7.0 0.00 0.00 0.00 74 1010.4
20260506083901 59 355 2.0 7.0 0.00 0.00 0.00 74 1010.2
20260506083401 59 355 3.0 7.0 0.00 0.00 0.00 74 1010.2
20260506082901 59 340 2.0 7.0 0.00 0.00 0.00 74 1010.1
20260506082358 59 14 2.0 9.0 0.00 0.00 0.00 74 1010.2
20260506081853 60 348 3.0 9.0 0.00 0.00 0.00 74 1010.2
20260506081614 60 343 2.0 6.0 0.00 0.00 0.00 74 1010.2
20260506080840 60 342 2.0 6.0 0.00 0.00 0.00 74 1010.2
20260506080340 60 355 2.0 5.0 0.00 0.00 0.00 74 1010.1
20260506080109 60 355 2.0 8.0 0.00 0.00 0.00 74 1010.0
20260506073333 60 5 1.0 5.0 0.00 0.00 0.00 75 1009.6
20260506072831 60 101 1.0 5.0 0.00 0.00 0.00 75 1009.6
20260506072331 60 30 1.0 5.0 0.00 0.00 0.00 75 1009.6
20260506072320 60 355 2.0 5.0 0.00 0.00 0.00 75 1009.9
20260506071330 60 355 2.0 5.0 0.00 0.00 0.00 75 1010.0
20260506070833 60 64 2.0 5.0 0.00 0.00 0.00 75 1009.9
20260506070332 60 5 2.0 6.0 0.00 0.00 0.00 75 1009.9
20260506062323 61 34 2.0 6.0 0.00 0.00 0.00 75 1009.9
20260506062045 61 88 2.0 6.0 0.00 0.00 0.00 76 1009.9
20260506061540 61 5 2.0 8.0 0.00 0.00 0.00 76 1009.9
20260506061523 61 0 2.0 8.0 0.00 0.00 0.00 76 1009.8
20260506060323 61 30 2.0 8.0 0.00 0.00 0.00 76 1010.0
20260506051319 62 345 3.0 10.0 0.00 0.00 0.00 76 1009.8
20260506050819 62 0 4.0 10.0 0.00 0.00 0.00 76 1009.9
20260506050319 62 32 4.0 9.0 0.00 0.00 0.00 76 1009.8
20260506044817 63 350 4.0 10.0 0.00 0.00 0.00 75 1009.5
20260506044317 63 5 4.0 10.0 0.00 0.00 0.00 75 1009.5
20260506043817 63 355 3.0 10.0 0.00 0.00 0.00 75 1009.8
20260506043317 64 32 3.0 10.0 0.00 0.00 0.00 75 1009.6
20260506042817 64 355 4.0 10.0 0.00 0.00 0.00 75 1009.6
20260506042317 64 349 3.0 10.0 0.00 0.00 0.00 75 1009.8
20260506042048 64 336 3.0 10.0 0.00 0.00 0.00 74 1009.6
20260506041317 64 355 3.0 10.0 0.00 0.00 0.00 75 1009.6
20260506040817 64 11 5.0 12.0 0.00 0.00 0.00 74 1009.5
20260506040313 65 31 4.0 12.0 0.00 0.00 0.00 74 1009.5
20260506035813 65 344 4.0 12.0 0.00 0.00 0.00 74 1009.5
20260506035313 65 13 4.0 10.0 0.00 0.00 0.00 74 1009.3
20260506034812 65 331 4.0 11.0 0.00 0.00 0.00 73 1009.0
20260506034312 66 341 4.0 11.0 0.00 0.00 0.00 73 1009.0
20260506033812 66 60 3.0 8.0 0.00 0.00 0.00 73 1008.7
20260506033313 67 89 3.0 8.0 0.00 0.00 0.00 73 1008.6
20260506033044 67 311 3.0 8.0 0.00 0.00 0.00 73 1008.5
20260506032313 67 355 4.0 13.0 0.00 0.00 0.00 72 1008.5
20260506031808 67 307 3.0 13.0 0.00 0.00 0.00 72 1008.3
20260506031308 68 350 3.0 11.0 0.00 0.00 0.00 72 1008.3
20260506031039 68 346 3.0 11.0 0.00 0.00 0.00 72 1008.2
20260506030308 68 5 3.0 10.0 0.00 0.00 0.00 72 1008.3
20260506030039 68 351 3.0 10.0 0.00 0.00 0.00 71 1008.2
20260506025312 68 37 3.0 10.0 0.00 0.00 0.00 71 1008.1
20260506024812 68 5 3.0 10.0 0.00 0.00 0.00 71 1008.1
20260506024311 68 338 3.0 9.0 0.00 0.00 0.00 70 1007.9
20260506023815 69 346 3.0 10.0 0.00 0.00 0.00 70 1007.7
20260506023303 69 78 3.0 10.0 0.00 0.00 0.00 70 1007.7
20260506022802 69 40 3.0 11.0 0.00 0.00 0.00 69 1007.8
20260506022306 69 344 3.0 11.0 0.00 0.00 0.00 69 1007.5
20260506022254 69 307 4.0 12.0 0.00 0.00 0.00 69 1007.4
20260506021303 69 355 5.0 12.0 0.00 0.00 0.00 68 1007.4
20260506020803 69 340 4.0 12.0 0.00 0.00 0.00 68 1007.3
20260506020302 70 355 4.0 11.0 0.00 0.00 0.00 68 1007.2
20260506015803 70 5 4.0 10.0 0.00 0.00 0.00 69 1007.1
20260506015302 70 84 3.0 10.0 0.00 0.00 0.00 68 1006.7
20260506014803 71 350 3.0 10.0 0.00 0.00 0.00 69 1006.7
20260506014301 71 10 3.0 9.0 0.00 0.00 0.00 69 1006.4
20260506013803 71 346 3.0 9.0 0.00 0.00 0.00 68 1006.3
20260506013303 71 338 3.0 9.0 0.00 0.00 0.00 68 1006.4
20260506012800 72 11 3.0 9.0 0.00 0.00 0.00 68 1006.4
20260506012254 72 23 3.0 9.0 0.00 0.00 0.00 68 1006.3
20260506012241 72 315 2.0 8.0 0.00 0.00 0.00 68 1006.1
20260506011244 73 76 2.0 8.0 0.00 0.00 0.00 67 1006.1
20260506011018 73 5 2.0 6.0 0.00 0.00 0.00 67 1006.1
20260506010245 73 355 3.0 9.0 0.00 0.00 0.00 67 1006.3
20260506005743 73 31 2.0 9.0 0.00 0.00 0.00 67 1006.1
20260506005243 74 351 3.0 8.0 0.00 0.00 0.00 67 1005.9
20260506004741 74 355 3.0 8.0 0.00 0.00 0.00 66 1005.8
20260506004239 74 339 2.0 11.0 0.00 0.00 0.00 66 1005.8
20260506003739 74 0 3.0 11.0 0.00 0.00 0.00 66 1005.5
20260506003240 75 348 4.0 12.0 0.00 0.00 0.00 66 1005.3
20260506002736 76 331 4.0 12.0 0.00 0.00 0.00 65 1005.4
20260506002234 76 0 3.0 10.0 0.00 0.00 0.00 65 1005.3
20260506001733 76 348 3.0 10.0 0.00 0.00 0.00 64 1005.1
20260506001232 77 355 3.0 10.0 0.00 0.00 0.00 63 1005.2
20260506001004 77 325 4.0 10.0 0.00 0.00 0.00 63 1005.1
20260506000230 78 0 4.0 12.0 0.00 0.00 0.00 63 1005.0
20260505235730 78 355 4.0 12.0 0.00 0.00 0.00 62 1005.0
20260505235230 78 0 4.0 12.0 0.00 0.00 0.00 61 1005.0
20260505234954 79 324 4.0 12.0 0.00 0.00 0.00 62 1005.0
20260505234232 80 9 4.0 11.0 0.00 0.00 0.00 61 1004.8
20260505233952 80 339 4.0 12.0 0.00 0.00 0.00 60 1004.7
20260505233216 80 331 4.0 12.0 0.00 0.00 0.00 59 1004.7
20260505232943 81 340 4.0 12.0 0.00 0.00 0.00 58 1004.6
20260505232209 81 337 5.0 12.0 0.00 0.00 0.00 58 1004.7
20260505231708 82 315 4.0 12.0 0.00 0.00 0.00 58 1004.6
20260505231209 82 355 4.0 14.0 0.00 0.00 0.00 57 1004.4
20260505230709 84 344 4.0 14.0 0.00 0.00 0.00 56 1004.4
20260505230207 84 355 4.0 11.0 0.00 0.00 0.00 57 1004.4
20260505225706 85 350 4.0 10.0 0.00 0.00 0.00 56 1004.2
20260505225207 85 339 3.0 9.0 0.00 0.00 0.00 56 1004.0
20260505224706 86 351 3.0 8.0 0.00 0.00 0.00 53 1003.9
20260505224205 87 5 4.0 16.0 0.00 0.00 0.00 52 1003.7
20260505223705 87 338 5.0 16.0 0.00 0.00 0.00 51 1003.7
20260505223436 87 333 4.0 11.0 0.00 0.00 0.00 50 1003.8
20260505222705 87 315 3.0 10.0 0.00 0.00 0.00 50 1003.8
20260505222208 87 355 3.0 10.0 0.00 0.00 0.00 49 1003.7
20260505221703 89 355 4.0 10.0 0.00 0.00 0.00 49 1003.5
20260505221425 88 340 5.0 11.0 0.00 0.00 0.00 49 1003.6
20260505220702 88 22 4.0 12.0 0.00 0.00 0.00 49 1003.4
20260505220208 89 341 4.0 12.0 0.00 0.00 0.00 50 1003.4
20260505215927 90 16 5.0 12.0 0.00 0.00 0.00 48 1003.4
20260505215159 92 259 4.0 12.0 0.00 0.00 0.00 46 1003.3
20260505214656 92 263 4.0 8.0 0.00 0.00 0.00 46 1003.5
20260505214142 93 343 5.0 10.0 0.00 0.00 0.00 45 1003.5
20260505213906 92 257 6.0 14.0 0.00 0.00 0.00 45 1003.4
20260505213141 93 233 5.0 14.0 0.00 0.00 0.00 45 1003.3
20260505212913 93 256 4.0 9.0 0.00 0.00 0.00 48 1003.4
20260505212144 92 294 6.0 11.0 0.00 0.00 0.00 46 1003.4
20260505211642 92 214 6.0 11.0 0.00 0.00 0.00 47 1003.5
20260505211141 92 225 5.0 10.0 0.00 0.00 0.00 49 1003.6
20260505210639 93 281 5.0 10.0 0.00 0.00 0.00 49 1003.7
20260505210629 92 253 6.0 14.0 0.00 0.00 0.00 48 1003.7
20260505205637 92 240 7.0 14.0 0.00 0.00 0.00 48 1003.7
20260505205358 92 212 6.0 12.0 0.00 0.00 0.00 48 1003.8
20260505204637 92 285 5.0 11.0 0.00 0.00 0.00 49 1003.9
20260505204136 92 308 6.0 12.0 0.00 0.00 0.00 50 1003.9
20260505203636 91 241 5.0 12.0 0.00 0.00 0.00 52 1004.0
20260505203134 92 244 6.0 14.0 0.00 0.00 0.00 53 1004.0
20260505202633 91 228 7.0 14.0 0.00 0.00 0.00 52 1004.1
20260505202132 91 241 6.0 13.0 0.00 0.00 0.00 51 1004.2
20260505201633 91 229 6.0 14.0 0.00 0.00 0.00 51 1004.4
20260505201130 91 235 7.0 14.0 0.00 0.00 0.00 52 1004.2
20260505200628 91 297 7.0 14.0 0.00 0.00 0.00 52 1004.2
20260505200122 92 227 6.0 13.0 0.00 0.00 0.00 56 1004.5
20260505195621 91 222 6.0 13.0 0.00 0.00 0.00 54 1004.5
20260505195120 91 232 5.0 10.0 0.00 0.00 0.00 55 1004.4
20260505194842 91 248 5.0 10.0 0.00 0.00 0.00 58 1004.5
20260505194120 90 231 5.0 11.0 0.00 0.00 0.00 57 1004.5
20260505193620 89 244 7.0 14.0 0.00 0.00 0.00 57 1004.5
20260505193120 89 242 8.0 14.0 0.00 0.00 0.00 59 1004.5
20260505192620 89 237 8.0 15.0 0.00 0.00 0.00 59 1004.8
20260505192120 89 227 9.0 18.0 0.00 0.00 0.00 57 1004.6
20260505191620 88 234 10.0 18.0 0.00 0.00 0.00 61 1004.6
20260505191121 87 222 9.0 17.0 0.00 0.00 0.00 59 1004.6
20260505190620 88 181 7.0 15.0 0.00 0.00 0.00 59 1004.5
20260505190121 88 248 6.0 12.0 0.00 0.00 0.00 60 1004.6
20260505185619 87 234 7.0 12.0 0.00 0.00 0.00 62 1004.5
20260505185345 87 103 8.0 13.0 0.00 0.00 0.00 63 1004.8
20260505184620 86 217 8.0 14.0 0.00 0.00 0.00 62 1004.7
20260505184120 86 253 8.0 15.0 0.00 0.00 0.00 63 1004.8
20260505183843 85 237 7.0 16.0 0.00 0.00 0.00 64 1004.8
20260505183344 85 217 7.0 16.0 0.00 0.00 0.00 63 1004.8
20260505182616 85 243 8.0 13.0 0.00 0.00 0.00 65 1004.9
20260505182117 85 243 8.0 13.0 0.00 0.00 0.00 66 1004.8
20260505181617 85 244 8.0 14.0 0.00 0.00 0.00 65 1004.9
20260505181118 84 212 7.0 14.0 0.00 0.00 0.00 64 1004.9
20260505180620 84 239 8.0 16.0 0.00 0.00 0.00 66 1004.9
20260505180117 84 207 8.0 17.0 0.00 0.00 0.00 65 1005.0
20260505175616 83 225 9.0 17.0 0.00 0.00 0.00 66 1005.0
20260505175114 83 238 7.0 16.0 0.00 0.00 0.00 68 1005.0
20260505174614 83 223 6.0 15.0 0.00 0.00 0.00 66 1004.9
20260505174114 83 211 6.0 15.0 0.00 0.00 0.00 65 1005.0
20260505173610 83 234 8.0 17.0 0.00 0.00 0.00 67 1005.0
20260505173110 83 231 9.0 17.0 0.00 0.00 0.00 66 1005.0
20260505172610 83 246 9.0 16.0 0.00 0.00 0.00 66 1005.1
20260505172110 82 246 8.0 16.0 0.00 0.00 0.00 67 1005.1
20260505171609 82 209 7.0 14.0 0.00 0.00 0.00 67 1005.1
20260505171110 82 223 7.0 13.0 0.00 0.00 0.00 69 1005.4
20260505170610 82 243 7.0 13.0 0.00 0.00 0.00 67 1005.0
20260505170110 82 205 7.0 16.0 0.00 0.00 0.00 66 1005.1
20260505165610 82 226 8.0 17.0 0.00 0.00 0.00 66 1005.0
20260505165106 83 235 7.0 17.0 0.00 0.00 0.00 66 1004.9
20260505164606 83 233 7.0 15.0 0.00 0.00 0.00 68 1005.0
20260505164106 82 225 7.0 15.0 0.00 0.00 0.00 70 1005.0
20260505163606 80 213 7.0 15.0 0.00 0.00 0.00 71 1005.0
20260505163107 80 188 8.0 15.0 0.00 0.00 0.00 70 1005.0
20260505162606 80 249 8.0 15.0 0.00 0.00 0.00 71 1004.9
20260505162106 81 224 9.0 17.0 0.00 0.00 0.00 70 1004.9
20260505161606 80 224 10.0 17.0 0.00 0.00 0.00 71 1005.0
20260505161106 80 244 9.0 17.0 0.00 0.00 0.00 70 1005.0
20260505160602 80 228 8.0 18.0 0.00 0.00 0.00 71 1004.8
20260505153101 77 208 7.0 14.0 0.00 0.00 0.00 75 1004.5
20260505152600 77 217 7.0 14.0 0.00 0.00 0.00 75 1004.7
20260505152059 77 236 5.0 14.0 0.00 0.00 0.00 74 1004.8
20260505151823 77 219 7.0 18.0 0.00 0.00 0.00 75 1004.8
20260505151056 76 225 8.0 18.0 0.00 0.00 0.00 76 1004.9
20260505150556 76 200 8.0 16.0 0.00 0.00 0.00 77 1004.9
20260505150319 76 238 8.0 18.0 0.00 0.00 0.00 76 1004.8
20260505140538 74 180 8.0 18.0 0.00 0.00 0.00 80 1004.9
20260505125014 71 211 6.0 11.0 0.00 0.00 0.00 85 1004.1
20260505124511 70 217 6.0 13.0 0.00 0.00 0.00 85 1004.0
20260505124010 70 215 7.0 14.0 0.00 0.00 0.00 85 1004.0
20260505123726 70 205 7.0 14.0 0.00 0.00 0.00 85 1003.9
20260505123228 70 196 7.0 14.0 0.00 0.00 0.00 85 1003.9
20260505122505 70 219 7.0 14.0 0.00 0.00 0.00 85 1003.8
20260505122004 70 206 7.0 14.0 0.00 0.00 0.00 85 1003.8
20260505121503 70 209 7.0 15.0 0.00 0.00 0.00 85 1003.7
20260505121003 70 216 6.0 15.0 0.00 0.00 0.00 85 1003.6
20260505120503 70 227 7.0 12.0 0.00 0.00 0.00 85 1003.4
20260505120003 70 221 7.0 12.0 0.00 0.00 0.00 85 1003.5
20260505115501 70 146 7.0 14.0 0.00 0.00 0.00 85 1003.6
20260505115000 70 211 7.0 14.0 0.00 0.00 0.00 85 1003.7
20260505114504 70 192 7.0 13.0 0.00 0.00 0.00 85 1003.6
20260505114004 70 210 6.0 13.0 0.00 0.00 0.00 85 1003.6
20260505113507 70 210 7.0 14.0 0.00 0.00 0.00 85 1003.5
20260505113005 70 128 6.0 14.0 0.00 0.00 0.00 85 1003.5
20260505112726 70 238 6.0 14.0 0.00 0.00 0.00 85 1003.5
20260505112004 70 219 7.0 14.0 0.00 0.00 0.00 85 1003.4
20260505111736 70 215 7.0 13.0 0.00 0.00 0.00 85 1003.5
20260505111004 70 217 7.0 13.0 0.00 0.00 0.00 85 1003.5
20260505110505 70 138 7.0 13.0 0.00 0.00 0.00 85 1003.5